Location: ??????????
(44.2167°N, 135.5333°E)
Time: 14:17:24
(UTC+00:00)

USA 290 - Pass Details

Date: 15 June 2025
Orbit: 392 x 417 km, 73.6° (Epoch: 20 June)

Event Time Altitude Azimuth Distance (km) Brightness Sun altitude
Exits shadow 12:04:30 12° 96° (E) 1,315 4.3 -11.6°
Drops below altitude 10° 12:05:43 10° 74° (ENE) 1,444 4.7 -11.7°
Sets 12:08:42 0° 43° (NE) 2,315 6.1 -12.1°
